GW1595 Weather Reports


time (UTC)temp
C
wind
direction
speed
KPH
gust
KPH
rain 1hr
cm
rain 24hr
cm
rain mn
cm
humidity
%
barometer
mb
20260505041709 15 315 3.2 9.7 0.00 0.00 0.00 85 1010.7
20260505040920 15 293 3.2 9.7 0.00 0.00 0.00 86 1010.8
20260505040401 15 293 3.2 9.7 0.00 0.00 0.00 86 1011.0
20260505035853 15 270 4.8 9.7 0.00 0.00 0.00 86 1010.9
20260505035346 15 293 4.8 6.4 0.00 0.00 0.00 86 1010.8
20260505034832 15 270 3.2 6.4 0.00 0.00 0.00 86 1010.7
20260505034323 15 270 1.6 6.4 0.00 0.00 0.00 87 1010.6
20260505033805 15 270 3.2 6.4 0.00 0.00 0.00 87 1010.7
20260505033251 14 270 1.6 3.2 0.00 0.00 0.00 88 1010.7
20260505033021 14 270 0.0 3.2 0.00 0.00 0.00 88 1010.4
20260505032225 14 270 1.6 3.2 0.00 0.00 0.00 88 1010.6
20260505031726 14 270 0.0 3.2 0.00 0.00 0.00 89 1010.6
20260505031211 13 270 0.0 3.2 0.00 0.00 0.00 89 1010.5
20260505030708 13 270 1.6 3.2 0.00 0.00 0.00 90 1010.6
20260505030149 13 248 0.0 0.0 0.00 0.00 0.00 90 1010.6
20260505025629 13 248 0.0 0.0 0.00 0.00 0.00 90 1010.5
20260505025109 13 248 0.0 0.0 0.00 0.00 0.00 90 1010.5
20260505024605 13 248 0.0 3.2 0.00 0.00 0.00 91 1010.7
20260505024050 13 248 0.0 3.2 0.00 0.00 0.00 91 1010.7
20260505023537 13 248 0.0 0.0 0.00 0.00 0.00 91 1010.6
20260505023022 13 248 0.0 0.0 0.00 0.00 0.00 92 1010.5
20260505022505 12 248 0.0 0.0 0.00 0.00 0.00 91 1010.3
20260505021941 12 248 0.0 0.0 0.00 0.00 0.00 91 1010.3
20260505021424 12 248 0.0 0.0 0.00 0.00 0.00 91 1010.1
20260505021136 12 248 0.0 0.0 0.00 0.00 0.00 91 1009.9
20260505020356 12 248 0.0 0.0 0.00 0.00 0.00 91 1009.8
20260505015842 12 248 0.0 0.0 0.00 0.00 0.00 91 1009.8
20260505015329 12 248 0.0 0.0 0.00 0.00 0.00 91 1009.8
20260505014806 11 248 0.0 0.0 0.00 0.00 0.00 90 1009.9
20260505014307 11 248 0.0 0.0 0.00 0.00 0.00 90 1009.9
20260505013759 11 248 0.0 0.0 0.00 0.00 0.00 90 1010.1
20260505013240 11 248 0.0 0.0 0.00 0.00 0.00 90 1009.9
20260505012948 11 248 0.0 0.0 0.00 0.00 0.00 90 1009.9
20260505012155 11 248 0.0 0.0 0.00 0.00 0.00 90 1010.1
20260505011639 11 248 0.0 0.0 0.00 0.00 0.00 90 1009.9
20260505011123 12 248 0.0 0.0 0.00 0.00 0.00 90 1009.9
20260505010553 12 248 0.0 0.0 0.00 0.00 0.00 90 1010.2
20260505010045 12 248 0.0 0.0 0.00 0.00 0.00 90 1010.2
20260505005758 12 248 0.0 0.0 0.00 0.00 0.00 90 1009.9
20260505005022 12 248 0.0 0.0 0.00 0.00 0.00 90 1009.8
20260505004519 12 248 0.0 0.0 0.00 0.00 0.00 90 1009.7
20260505004239 12 248 0.0 0.0 0.00 0.00 0.00 90 1009.6
20260505003502 12 248 0.0 0.0 0.00 0.00 0.00 90 1009.6
20260505002945 12 248 0.0 0.0 0.00 0.00 0.00 89 1009.6
20260505002417 12 248 0.0 0.0 0.00 0.00 0.00 89 1009.4
20260505001905 12 248 0.0 0.0 0.00 0.00 0.00 89 1009.3
20260505001401 12 248 0.0 0.0 0.00 0.00 0.00 89 1009.0
20260505000854 12 248 0.0 0.0 0.00 0.00 0.00 89 1009.2
20260505000351 12 248 0.0 0.0 0.00 0.00 0.00 88 1009.0
20260504235848 12 248 0.0 0.0 0.00 0.00 0.00 88 1008.5
20260504235343 12 248 0.0 6.4 0.00 0.00 0.00 88 1008.4
20260504234821 12 248 1.6 6.4 0.00 0.00 0.00 87 1008.4
20260504234320 13 270 0.0 0.0 0.00 0.00 0.00 87 1008.2
20260504233819 13 270 0.0 0.0 0.00 0.00 0.00 87 1008.2
20260504233542 13 270 0.0 0.0 0.00 0.00 0.00 86 1008.4
20260504232810 13 270 0.0 0.0 0.00 0.00 0.00 86 1008.2
20260504232258 13 270 0.0 0.0 0.00 0.00 0.00 86 1008.1
20260504231750 13 270 0.0 0.0 0.00 0.00 0.00 85 1007.9
20260504231733 13 270 0.0 0.0 0.00 0.00 0.00 84 1007.9
20260504231451 14 270 0.0 0.0 0.00 0.00 0.00 84 1007.7
20260504230456 14 270 0.0 0.0 0.00 0.00 0.00 84 1007.7
20260504225724 14 270 0.0 0.0 0.00 0.00 0.00 83 1008.0
20260504225450 14 270 0.0 0.0 0.00 0.00 0.00 83 1008.0
20260504224712 15 270 0.0 0.0 0.00 0.00 0.00 82 1008.2
20260504224152 15 270 0.0 0.0 0.00 0.00 0.00 82 1007.7
20260504223646 15 270 0.0 0.0 0.00 0.00 0.00 81 1008.0
20260504223146 15 270 0.0 0.0 0.00 0.00 0.00 81 1007.9
20260504222635 15 270 0.0 0.0 0.00 0.00 0.00 80 1008.1
20260504222134 16 270 0.0 0.0 0.00 0.00 0.00 79 1008.0
20260504221630 16 270 0.0 0.0 0.00 0.00 0.00 75 1008.1
20260504221620 16 270 0.0 0.0 0.00 0.00 0.00 77 1008.2
20260504220610 17 270 0.0 3.2 0.00 0.00 0.00 74 1008.1
20260504220054 17 270 0.0 3.2 0.00 0.00 0.00 73 1008.4
20260504220042 17 270 1.6 6.4 0.00 0.00 0.00 72 1008.2
20260504215034 17 270 1.6 6.4 0.00 0.00 0.00 71 1008.1
20260504214531 17 270 1.6 3.2 0.00 0.00 0.00 71 1008.2
20260504214011 18 270 3.2 6.4 0.00 0.00 0.00 70 1008.3
20260504213459 18 270 3.2 6.4 0.00 0.00 0.00 68 1008.4
20260504213225 18 270 4.8 6.4 0.00 0.00 0.00 68 1008.1
20260504212447 18 248 1.6 11.3 0.00 0.00 0.00 68 1008.3
20260504211927 19 203 1.6 11.3 0.00 0.00 0.00 67 1008.1
20260504211420 19 225 3.2 6.4 0.00 0.00 0.00 67 1008.1
20260504210902 19 225 3.2 6.4 0.00 0.00 0.00 66 1007.7
20260504210339 20 225 3.2 6.4 0.00 0.00 0.00 65 1007.7
20260504205328 20 270 3.2 6.4 0.00 0.00 0.00 61 1007.5
20260504205026 20 270 1.6 9.7 0.00 0.00 0.00 62 1007.4
20260504204241 21 248 1.6 9.7 0.00 0.00 0.00 60 1007.6
20260504203722 21 270 3.2 9.7 0.00 0.00 0.00 60 1007.6
20260504203209 21 315 4.8 9.7 0.00 0.00 0.00 60 1007.7
20260504202659 21 270 6.4 9.7 0.00 0.00 0.00 60 1007.9
20260504202143 21 270 6.4 9.7 0.00 0.00 0.00 60 1007.5
20260504201633 21 248 1.6 11.3 0.00 0.00 0.00 60 1007.6
20260504201351 21 270 3.2 11.3 0.00 0.00 0.00 59 1007.7
20260504200613 21 315 3.2 9.7 0.00 0.00 0.00 60 1007.9
20260504200039 21 270 6.4 9.7 0.00 0.00 0.00 59 1007.6
20260504195529 21 293 3.2 12.9 0.00 0.00 0.00 58 1007.7
20260504195025 21 270 3.2 12.9 0.00 0.00 0.00 58 1007.9
20260504194754 21 270 1.6 12.9 0.00 0.00 0.00 58 1008.0
20260504194234 21 270 1.6 11.3 0.00 0.00 0.00 58 1007.9
20260504193710 22 270 3.2 11.3 0.00 0.00 0.00 58 1007.7
20260504192928 21 270 3.2 11.3 0.00 0.00 0.00 58 1007.7
20260504192647 21 270 3.2 9.7 0.00 0.00 0.00 57 1007.7
20260504191904 21 293 3.2 9.7 0.00 0.00 0.00 58 1007.5
20260504191404 21 293 3.2 9.7 0.00 0.00 0.00 58 1008.0
20260504191135 21 270 3.2 9.7 0.00 0.00 0.00 58 1008.0
20260504190354 21 270 3.2 9.7 0.00 0.00 0.00 58 1007.7
20260504185847 22 248 3.2 9.7 0.00 0.00 0.00 57 1008.0
20260504185339 21 203 3.2 9.7 0.00 0.00 0.00 58 1008.1
20260504184821 21 293 3.2 11.3 0.00 0.00 0.00 58 1008.1
20260504184308 21 270 3.2 11.3 0.00 0.00 0.00 59 1008.0
20260504183754 21 270 3.2 12.9 0.00 0.00 0.00 58 1008.3
20260504183244 21 270 3.2 12.9 0.00 0.00 0.00 59 1008.3
20260504182738 21 293 6.4 9.7 0.00 0.00 0.00 58 1008.4
20260504182451 21 248 4.8 12.9 0.00 0.00 0.00 59 1008.4
20260504181648 21 270 0.0 14.5 0.00 0.00 0.00 60 1008.3
20260504181134 21 293 9.7 14.5 0.00 0.00 0.00 60 1008.5
20260504180620 21 315 3.2 12.9 0.00 0.00 0.00 60 1008.6
20260504180106 21 270 6.4 12.9 0.00 0.00 0.00 59 1008.7
20260504175554 22 293 4.8 9.7 0.00 0.00 0.00 56 1008.6
20260504175037 21 113 0.0 11.3 0.00 0.00 0.00 59 1008.6
20260504174536 21 293 3.2 11.3 0.00 0.00 0.00 58 1009.0
20260504174006 21 248 3.2 12.9 0.00 0.00 0.00 59 1008.8
20260504173445 21 315 8.0 12.9 0.00 0.00 0.00 59 1009.2
20260504172935 21 270 3.2 14.5 0.00 0.00 0.00 58 1009.0
20260504172424 20 270 4.8 14.5 0.00 0.00 0.00 60 1009.3
20260504172137 21 293 3.2 9.7 0.00 0.00 0.00 58 1009.3
20260504171347 20 270 3.2 9.7 0.00 0.00 0.00 58 1009.5
20260504171114 20 293 3.2 12.9 0.00 0.00 0.00 59 1009.5
20260504170329 20 248 6.4 12.9 0.00 0.00 0.00 60 1009.5
20260504170316 20 293 6.4 11.3 0.00 0.00 0.00 59 1009.6
20260504160114 19 270 6.4 12.9 0.00 0.00 0.00 60 1010.8
20260504150903 19 315 4.8 11.3 0.00 0.00 0.00 61 1011.2
20260504150358 18 293 3.2 11.3 0.00 0.00 0.00 61 1011.4
20260504141224 16 315 6.4 17.7 0.00 0.00 0.00 66 1011.7
20260504140715 17 315 6.4 12.9 0.00 0.00 0.00 67 1011.4
20260504140211 16 270 8.0 12.9 0.00 0.00 0.00 67 1011.5
20260504130453 15 293 1.6 6.4 0.00 0.00 0.00 66 1011.7
20260504120225 11 23 0.0 0.0 0.00 0.00 0.00 81 1011.6
20260504110505 7 23 0.0 0.0 0.00 0.00 0.00 86 1011.0
20260504110229 7 23 0.0 0.0 0.00 0.00 0.00 86 1010.7
20260504100258 9 23 1.6 3.2 0.00 0.00 0.00 75 1010.1
20260504081914 8 0 0.0 0.0 0.00 0.00 0.00 78 1010.2
20260504081351 9 0 0.0 0.0 0.00 0.00 0.00 77 1010.2
20260504080832 9 0 0.0 0.0 0.00 0.00 0.00 76 1009.8
20260504080601 9 0 0.0 0.0 0.00 0.00 0.00 76 1010.1
20260504070140 11 315 0.0 6.4 0.00 0.00 0.00 70 1010.7
20260504050706 12 338 1.6 12.9 0.00 0.00 0.00 73 1011.5
20260504050133 12 338 4.8 12.9 0.00 0.00 0.00 73 1011.6
20260504050113 11 0 0.0 11.3 0.00 0.00 0.00 74 1011.6